Tracking 17857 objects as of 30-September-2016
HD Live streaming from Space Station
objects crossing your sky now

COSMOS 2251 DEB

Track COSMOS 2251 DEB now!
10-day predictions


NORAD ID: 35451
Int'l Code: 1993-036AKV
Perigee: 566.8 km
Apogee: 722.2 km
Inclination: 73.9 °
Period: 97.5 minutes
Semi major axis: 7015 km
RCS: 0.0039 m2 (small)
Launch date: June 16, 1993
Source: Commonwealth of Independent States (former USSR) (CIS)
Launch site: PLESETSK MISSILE AND SPACE COMPLEX (PKMTR)

Note: This is SATELLITE DEBRIS
Your satellite tracking list
Your tracking list is empty





NASA's NSSDC Master Catalog

Two Line Element Set (TLE):
1 35451U 93036AKV 16272.57458241  .00001258  00000-0  16466-3 0  9995
2 35451  73.9481 350.7241 0110756 314.6664  44.5522 14.77448791400024
Source of the keplerian elements: AFSPC

N2YO: 948